Location: Ar Ranvel
(48.3000°N, 4.8833°W)
Time: 11:57:07
(UTC+00:00)

ISS - Visible Passes

Search period start: 28 September 2021 00:00
Search period end: 08 October 2021 00:00
Orbit: 417 x 422 km, 51.6° (Epoch: 28 September)

Date Brightness Start Highest point End Pass type
(mag) Time Alt. Az. Time Alt. Az. Time Alt. Az.
28 Sep -3.2 19:03:32 10° WNW 19:06:50 48° N 19:09:09 17° ENE visible
28 Sep -1.6 20:40:24 10° WNW 20:42:06 27° WNW 20:42:06 27° WNW visible
29 Sep -3.9 19:52:59 10° WNW 19:56:22 89° NE 19:56:29 82° ESE visible
30 Sep -3.7 19:05:28 10° WNW 19:08:50 68° NNE 19:10:50 22° E visible
30 Sep -1.2 20:42:29 10° W 20:43:48 19° W 20:43:48 19° W visible
01 Oct -3.1 19:54:47 10° WNW 19:58:02 45° SSW 19:58:08 44° SSW visible
02 Oct -3.5 19:07:06 10° WNW 19:10:27 66° SSW 19:12:27 22° SE visible
02 Oct -0.6 20:45:01 10° WSW 20:45:25 11° WSW 20:45:25 11° WSW visible
03 Oct -1.7 19:56:40 10° W 19:59:14 20° SW 19:59:45 20° SSW visible
04 Oct -2.2 19:08:36 10° W 19:11:36 30° SW 19:14:08 13° SSE visible
05 Oct -2.8 18:20:37 10° WNW 18:23:52 45° SSW 18:27:06 10° SE visible
06 Oct -0.9 19:10:31 10° WSW 19:12:16 14° SW 19:14:02 10° SSW visible
07 Oct -1.3 18:21:53 10° W 18:24:29 21° SW 18:27:04 10° S visible
